| time (UTC) | temp C | wind direction | speed KPH | gust KPH | rain 1hr cm | rain 24hr cm | rain mn cm | humidity % | barometer mb |
| 20260506020007 | 18 | 302 | 0.0 | 11.3 | 0.00 | 0.15 | 0.00 | 43 | 1009.5 |
| 20260506014507 | 19 | 342 | 0.0 | 14.5 | 0.00 | 0.58 | 0.00 | 40 | 1009.3 |
| 20260506013006 | 20 | 297 | 3.2 | 12.9 | 0.00 | 0.58 | 0.00 | 39 | 1009.4 |
| 20260506011504 | 20 | 326 | 0.0 | 8.0 | 0.00 | 0.58 | 0.00 | 37 | 1009.6 |
| 20260506010002 | 20 | 319 | 1.6 | 11.3 | 0.00 | 0.58 | 0.00 | 39 | 1009.6 |
| 20260506004604 | 20 | 272 | 1.6 | 11.3 | 0.00 | 0.69 | 0.00 | 39 | 1009.7 |
| 20260506003058 | 19 | 341 | 0.0 | 3.2 | 0.00 | 0.69 | 0.00 | 42 | 1009.7 |
| 20260506001559 | 20 | 315 | 6.4 | 12.9 | 0.00 | 0.69 | 0.00 | 42 | 1009.6 |
| 20260506000057 | 20 | 343 | 8.0 | 14.5 | 0.00 | 0.69 | 0.00 | 42 | 1009.7 |
| 20260505234607 | 20 | 86 | 0.0 | 11.3 | 0.00 | 0.69 | 0.00 | 41 | 1009.8 |
| 20260505233052 | 19 | 311 | 0.0 | 12.9 | 0.00 | 0.69 | 0.00 | 42 | 1009.9 |
| 20260505231550 | 20 | 245 | 0.0 | 11.3 | 0.00 | 0.69 | 0.00 | 44 | 1010.0 |
| 20260505230049 | 20 | 304 | 9.7 | 19.3 | 0.00 | 0.69 | 0.00 | 44 | 1010.1 |
| 20260505224548 | 19 | 41 | 0.0 | 8.0 | 0.00 | 0.69 | 0.00 | 41 | 1010.4 |
| 20260505223046 | 19 | 302 | 0.0 | 17.7 | 0.00 | 0.69 | 0.00 | 43 | 1010.6 |
| 20260505221544 | 18 | 101 | 8.0 | 16.1 | 0.00 | 0.69 | 0.00 | 43 | 1010.8 |
| 20260505220042 | 18 | 335 | 0.0 | 3.2 | 0.00 | 0.69 | 0.00 | 43 | 1011.1 |
| 20260505214600 | 18 | 356 | 0.0 | 12.9 | 0.00 | 0.69 | 0.00 | 48 | 1011.2 |
| 20260505213042 | 17 | 224 | 0.0 | 17.7 | 0.00 | 0.69 | 0.00 | 53 | 1011.4 |
| 20260505211535 | 17 | 224 | 0.0 | 0.0 | 0.00 | 0.69 | 0.00 | 53 | 1011.4 |
| 20260505210033 | 16 | 132 | 0.0 | 6.4 | 0.00 | 0.69 | 0.00 | 57 | 1011.6 |
| 20260505204532 | 16 | 314 | 3.2 | 9.7 | 0.00 | 0.76 | 0.00 | 57 | 1011.7 |
| 20260505203037 | 16 | 309 | 0.0 | 1.6 | 0.00 | 0.76 | 0.00 | 56 | 1011.7 |
| 20260505201536 | 17 | 85 | 0.0 | 9.7 | 0.00 | 0.76 | 0.00 | 54 | 1011.8 |
| 20260505200028 | 16 | 136 | 0.0 | 6.4 | 0.00 | 0.76 | 0.00 | 56 | 1011.9 |
| 20260505194526 | 16 | 70 | 4.8 | 9.7 | 0.00 | 0.76 | 0.00 | 61 | 1012.1 |
| 20260505193023 | 14 | 26 | 1.6 | 8.0 | 0.00 | 0.76 | 0.00 | 62 | 1012.2 |
| 20260505191522 | 14 | 66 | 0.0 | 9.7 | 0.00 | 0.76 | 0.00 | 65 | 1012.2 |
| 20260505190022 | 14 | 108 | 0.0 | 6.4 | 0.00 | 0.76 | 0.00 | 66 | 1012.2 |
| 20260505184517 | 13 | 59 | 1.6 | 9.7 | 0.00 | 0.76 | 0.00 | 66 | 1012.2 |
| 20260505183019 | 13 | 27 | 3.2 | 8.0 | 0.00 | 0.76 | 0.00 | 66 | 1012.2 |
| 20260505181514 | 12 | 314 | 0.0 | 9.7 | 0.00 | 0.76 | 0.00 | 72 | 1012.4 |
| 20260505180011 | 11 | 46 | 4.8 | 11.3 | 0.00 | 0.76 | 0.00 | 72 | 1012.2 |
| 20260505174513 | 11 | 43 | 3.2 | 9.7 | 0.00 | 0.76 | 0.00 | 74 | 1012.1 |
| 20260505173011 | 11 | 23 | 4.8 | 14.5 | 0.00 | 0.76 | 0.00 | 73 | 1011.9 |
| 20260505171504 | 11 | 331 | 6.4 | 16.1 | 0.00 | 0.76 | 0.00 | 75 | 1011.8 |
| 20260505170004 | 11 | 6 | 6.4 | 16.1 | 0.00 | 0.76 | 0.00 | 76 | 1011.8 |
| 20260505164501 | 10 | 330 | 3.2 | 11.3 | 0.00 | 0.79 | 0.00 | 79 | 1011.7 |
| 20260505163059 | 10 | 314 | 3.2 | 12.9 | 0.00 | 0.79 | 0.00 | 83 | 1011.6 |
| 20260505161610 | 9 | 356 | 0.0 | 9.7 | 0.00 | 0.79 | 0.00 | 82 | 1011.7 |
| 20260505153047 | 8 | 347 | 6.4 | 11.3 | 0.00 | 0.79 | 0.00 | 86 | 1011.3 |
| 20260505151543 | 7 | 307 | 1.6 | 8.0 | 0.00 | 0.79 | 0.00 | 87 | 1011.1 |
| 20260505124532 | 6 | 333 | 1.6 | 12.9 | 0.00 | 0.79 | 0.00 | 88 | 1009.7 |
| 20260505123025 | 6 | 347 | 4.8 | 14.5 | 0.00 | 0.79 | 0.00 | 89 | 1009.5 |
| 20260505121524 | 6 | 335 | 6.4 | 12.9 | 0.00 | 0.79 | 0.00 | 90 | 1009.6 |
| 20260505120028 | 6 | 337 | 3.2 | 9.7 | 0.00 | 0.79 | 0.00 | 90 | 1009.6 |
| 20260505114523 | 5 | 344 | 3.2 | 9.7 | 0.00 | 0.79 | 0.00 | 90 | 1009.4 |
| 20260505113024 | 6 | 24 | 4.8 | 12.9 | 0.00 | 0.79 | 0.00 | 89 | 1009.4 |
| 20260505111521 | 6 | 323 | 4.8 | 14.5 | 0.00 | 0.79 | 0.00 | 89 | 1009.4 |
| 20260505101529 | 6 | 313 | 8.0 | 12.9 | 0.00 | 0.79 | 0.00 | 89 | 1009.7 |
| 20260505100114 | 5 | 330 | 0.0 | 0.0 | 0.00 | 0.79 | 0.00 | 90 | 1009.8 |
| 20260505094513 | 5 | 330 | 0.0 | 3.2 | 0.00 | 0.79 | 0.00 | 90 | 1009.9 |
| 20260505093022 | 5 | 335 | 6.4 | 9.7 | 0.00 | 0.79 | 0.00 | 90 | 1009.8 |
| 20260505091511 | 5 | 356 | 1.6 | 8.0 | 0.00 | 0.79 | 0.00 | 90 | 1009.8 |
| 20260505090011 | 5 | 354 | 1.6 | 11.3 | 0.00 | 0.79 | 0.00 | 89 | 1009.9 |
| 20260505084509 | 5 | 30 | 3.2 | 14.5 | 0.00 | 0.79 | 0.00 | 90 | 1009.8 |
| 20260505083011 | 5 | 333 | 11.3 | 20.9 | 0.00 | 0.79 | 0.00 | 90 | 1009.9 |
| 20260505081508 | 5 | 330 | 11.3 | 17.7 | 0.00 | 0.79 | 0.00 | 92 | 1010.1 |
| 20260505080001 | 5 | 293 | 6.4 | 14.5 | 0.00 | 0.79 | 0.00 | 94 | 1010.3 |
| 20260505074501 | 5 | 316 | 0.0 | 8.0 | 0.00 | 0.79 | 0.00 | 94 | 1010.2 |
| 20260505073100 | 5 | 262 | 4.8 | 8.0 | 0.00 | 0.79 | 0.00 | 94 | 1010.2 |
| 20260505071605 | 5 | 314 | 4.8 | 11.3 | 0.00 | 0.79 | 0.00 | 94 | 1010.4 |
| 20260505070056 | 5 | 262 | 4.8 | 14.5 | 0.00 | 0.79 | 0.00 | 94 | 1010.1 |
| 20260505064553 | 5 | 325 | 9.7 | 16.1 | 0.00 | 0.79 | 0.79 | 94 | 1009.9 |
| 20260505063119 | 5 | 318 | 3.2 | 11.3 | 0.00 | 0.79 | 0.79 | 94 | 1009.4 |
| 20260505061618 | 5 | 341 | 3.2 | 9.7 | 0.00 | 0.79 | 0.79 | 94 | 1008.7 |
| 20260505060100 | 5 | 342 | 4.8 | 12.9 | 0.00 | 0.79 | 0.79 | 94 | 1009.0 |
| 20260505054549 | 5 | 314 | 9.7 | 27.4 | 0.00 | 0.79 | 0.79 | 94 | 1009.1 |
| 20260505053046 | 5 | 297 | 14.5 | 27.4 | 0.03 | 0.79 | 0.79 | 94 | 1009.4 |
| 20260505051607 | 6 | 324 | 12.9 | 24.1 | 0.03 | 0.79 | 0.79 | 94 | 1009.1 |
| 20260505041548 | 6 | 39 | 6.4 | 16.1 | 0.05 | 0.76 | 0.76 | 94 | 1009.0 |
| 20260505040041 | 6 | 298 | 9.7 | 19.3 | 0.08 | 0.76 | 0.76 | 94 | 1008.7 |
| 20260505034540 | 6 | 22 | 6.4 | 20.9 | 0.03 | 0.71 | 0.71 | 94 | 1009.2 |
| 20260505033041 | 6 | 22 | 6.4 | 14.5 | 0.08 | 0.71 | 0.71 | 94 | 1008.6 |
| 20260505031540 | 6 | 345 | 4.8 | 19.3 | 0.08 | 0.71 | 0.71 | 94 | 1008.1 |
| 20260505030138 | 6 | 103 | 3.2 | 14.5 | 0.05 | 0.69 | 0.69 | 94 | 1008.4 |
| 20260505024541 | 6 | 193 | 8.0 | 11.3 | 0.08 | 0.69 | 0.69 | 94 | 1008.3 |
| 20260505023036 | 6 | 19 | 11.3 | 16.1 | 0.10 | 0.64 | 0.64 | 94 | 1008.7 |
| 20260505021536 | 6 | 49 | 3.2 | 12.9 | 0.36 | 0.64 | 0.64 | 93 | 1008.1 |